Back to catalog

THORAD AGENA D DEB

AliveLEO
NORAD 4951·DEBRIS·🇺🇸 United States

Launched Apr 8, 1970 from Vandenberg Space Force Base

Loading…

Next Passes

TLE

Source: Space-Track
1  4951U 70025GM  26221.81835741  .00000088  00000-0  17919-3 0  9999
2  4951 100.1860 219.9282 0017745 354.7663 129.8722 13.61270612790138

Track THORAD AGENA D DEB in real time with AllMySat

Download on the App Store